Погода в Поныри

Погода в Поныри : погода сейчас, прогноз погоды и архив. Всё, что Вы хотите узнать о погоде в Поныри!

Хотите узнать прогноз погоды в Поныри? Тогда Вам сюда: Погода в Поныри

Поиск расширенной информации на нашем сайте:

Другие новости

Новости СМИ2

Главная страница сайта

Новости сайта

02.10.2013

Напоминаем, что на нашем новом сайте вы можете получить высокодетализированные прогнозы погоды по пунктам России, СНГ и мира (включающие важные для авиации метеовеличины, такие как направление и скорость ветра, видимость, явления погоды, количество и форма облачности, нижняя и верхняя граница облачности), а также ознакомиться с разнообразными материалами по авиационной метеорологии и подборкой полезных ссылок на эту тему.

Сайт Метеоцентр.Азия посвящён разработке технологий оптимизации авиаметеорологического обслуживания, включая проектирование и перспективное создание нескольких автоматизированных авиаметеорологических систем:
- система выпуска высокодетальных прогностических карт явлений погоды для нижнего воздушного пространства по России и ближнему зарубежью;
- система верификации прогнозов TAF (выпускаемых синоптиками официальных АМСГ РФ и ближнего зарубежья) и AUTOTAF (выпускаемых сайтом Метеоцентр.Азия) - выявление ошибок, онлайн-сопоставление с фактической погодой METAR, автоматическое внесение коррективов в прогнозы при резком отклонении фактической погоды от прогноза, подсчёт оправдываемости прогнозов по элементам и в целом;
- система обработки, анализа и отображения авиаметеорологической информации для применения провайдерами метеорологической информации.

Рекомендуем: Сборка мебели петербург, сборщик мебели http://www.sborka-mebeli-spb.ru.

Погода в Поныри - сегодня

Время (UTC), дата Ветер
(°,м/с) 
Видим.   Явления Облачность Т
(°С)
Тd
(°С)
f(%) Тe
(°С)
Pmin
(гПа)
dP
(гПа)
Po
(мм)
O2
(г/м3)
Тmin Tmax R s Состояние
почвы
09 18.01.17 300 (СЗ) 10 км  {снег}  10/10 600 м 
[Sc]
-4.7 -6.4 88 -6  1037.5  0.9  754  310           
12 18.01.17 330 (СЗ) 10 км  слаб. снег  10/0 средняя 
[As op]
-4 -7.4 77 -5  1037.3  -0.2  754  309           
15 18.01.17 280 (З) 10 км  {снег}  9/9 600 м 
[Sc]
-4.9 -7.7 81 -4  1037.9  0.5  754  310      0.2     
18 18.01.17 280 (З) 20000 м  {снег}  8/8 600 м 
[Sc]
-5.7 -9.1 77 -5  1038.9  755  312    -4  0.2     
21 18.01.17 280 (З) 20000 м    10/10 600 м 
[Sc]
-5.9 -9.4 76 -6  1038.6  -0.4  754  312           
00 19.01.17 250 (З) 20000 м    ясно 
-9.8 -11.5 87 -12  1038.2  -0.9  754  316           
03 19.01.17 290 (З) 4000 м  дымка  10/10 600 м 
[St]
-11.3 -12.6 90 -14  1038.1  -0.3  754  318  -11.3         
06 19.01.17 290 (З) 4000 м  дымка  10/10 300 м 
[St]
-10.3 -10.9 95 -13  1037.3  -0.5  753  316  -11.3      33  неравномерный
мокрый или
старый снег
100% 
09 19.01.17 240 (ЮЗ) 4000 м  дымка  10/10 300 м 
[St]
-8 -9 93 -10  1036.6  -0.5  753  313           
12 19.01.17 250 (З) 4000 м  дымка  9/9 600 м 
[Sc]
-7.8 -8.8 93 -11  1034.7  -1.9  751  313           
15 19.01.17 250 (З) 10 км    8/0 средняя 
[Ac trans]
-8 -9.4 90 -12  1032.8  -1.8  750  312           
18 19.01.17 250 (З) 5-10{10}  10 км    9/9 600 м 
[Sc]
-7.5 -9.2 88 -12  1030.4  -2.2  748  311    -7.5       
21 19.01.17 250 (З) 5-10{11}  10 км  позёмок  10/10 300 м 
[St]
-7.8 -9.2 90 -12  1028.1  -2.3  747  311           
00 20.01.17 250 (З) 5-10{12}  10 км  позёмок  10/10 300 м 
[St]
-7.7 -9.1 90 -12  1025.7  -2.3  745  310           
03 20.01.17 260 (З) 5-10{11}  10 км  позёмок  10/10 300 м 
[St]
-7.1 -8.4 90 -11  1023.3  -2.3  743  308  -8.1         
06 20.01.17 270 (З) 5{12}  10 км    10/10 300 м 
[St]
-6.6 -7.4 94 -11  1022.3  -0.9  743  307  -7.9      31  неравномерный
мокрый или
старый снег
100% 
09 20.01.17 280 (З) 5{11}  10 км    10/10 600 м 
[St]
-5.4 -6.1 95 -9  1022.2  0.1  743  306           
12 20.01.17 280 (З) 10 км    10/10 600 м 
[St]
-4 -5.2 91 -7  1020.8  -1.2  742  304           
15 20.01.17 280 (З) 20000 м    10/10 600 м 
[St]
-3.8 -5 91 -7  1021.1  0.4  742  304           
18 20.01.17 270 (З) 20000 м    10/10 600 м 
[St]
-3.3 -4.7 90 -5  1020.8  -0.3  742  303    -3.3       
21 20.01.17 260 (З) 20000 м    10/10 600 м 
[St]
-3.2 -4.6 90 -5  1020  -0.8  741  303           
00 21.01.17 260 (З) 20000 м    10/10 600 м 
[St]
-3 -4 93 -6  1019.3  -0.7  741  302           
03 21.01.17 260 (З) 5{10}  10 км  слаб. снег  10/10 300 м 
[Frnb|Ns]
-2.7 -3.4 95 -6  1016.6  -2.5  739  301  -3.8    0.3     
06 21.01.17 270 (З) 10 км  слаб. снег  10/10 300 м 
[Frnb|Ns]
-2.5 -3.4 94 -5  1014.6  -1.9  737  300  -3.3    0.7  32  неравномерный
мокрый или
старый снег
100% 
09 21.01.17 300 (СЗ) 20000 м  {снег}  10/10 600 м 
[St]
-0.8 -2.1 91 -3  1014.1  -0.2  737  298           
Время (UTC), дата Ветер
(°,м/с) 
Видим.   Явления Облачность Т
(°С)
Тd
(°С)
f(%) Тe
(°С)
Pmin
(гПа)
dP
(гПа)
Po
(мм)
O2
(г/м3)
Тmin Tmax R s Состояние
почвы

Для получения пояснительной информации подведите курсор к названию столбца.

ПОГОДА в Поныри - архив

Всё, что Вы хотите узнать о погоде в Поныри - удобно и подробно!

Выберите нужную дату (начиная с 1 января 2015* года) и нажмите кнопку "Найти".
Будут отображены архивные сводки погоды по пункту Поныри, начиная с указанной даты.


Отображать данные в формате CSV (для использования в таблицах Excel)


Внимание! Наш архив погоды предназначен исключительно для личного некоммерческого использования в познавательных целях. Если Вам необходимы официальные справки о состоянии погоды (для производственных, юридических, коммерческих и т.п. целей), обращайтесь в органы Росгидромета.

*Примечание: данная дата относится к архиву по метеостанциям СССР (Россия, СНГ, Балтия).
Архив по метеостанциям Зарубежной Европы и Азии (кроме Китая) хранится 10 дней, по другим регионам земного шара (Китай, Африка, Америка, Австралия, Океания) - 1 день.

Поныри - район местоположения метеостанции


Название, широта, долгота, высота метеостанции:
Поныри 52.3°ш. 36.3°д. 251 м над ур. моря [Российская Федерация]

Дополнительная информация

В oтличие oт бoльшинства пoгoдных сайтoв мы публикуем пoдрoбную метеoинфoрмацию в детальнoм прoфессиoнальнoм фoрмате.

Характеристики температуры и влажнoсти вoздуха измеряются на высoте 2 м в тени вдали oт зданий и деревьев.
Скoрoсть ветра измеряется на высoте 10 м (на урoвне рoста челoвека скoрoсть ветра ниже в 1.5-2 раза). Если метеoстанция нахoдится в гoрoде или в лесу, тo скoрoсть ветра занижена на 2-4 м/с пo сравнению с oткрытым местoм. Скoрoсть ветра над акватoриями крупных рек и oзёр, а также на вершинах хoлмoв на 2-5 м/с выше, чем в oбычных услoвиях.
Атмoсфернoе давление в разных тoчках местнoсти мoжет значительнo oтличаться oт давления на метеoстанции, в зависимoсти oт услoвий рельефа (при пoдъёме на 10 м давление пoнижается примернo на 1 мм рт.ст.).